Weather past 2 weeks in Mamoutzou, Mayotte

Now
77 °F

Warm.


Feels Like: 78 °F
Forecast: 77 / 80 °F
Wind: No wind

Location: Dzaoudzi / Pamanzi Mayotte

Current Time: Oct 26, 2014 at 1:14:39 AM

Latest Report: Oct 26, 2014 at 12:30 AM


Visibility: N/A

Pressure: 29.92 "Hg

Humidity: 83%

Dew point: 72 °F

Location of MamoutzouLocation

Historic Weather in Mamoutzou — Graph

°F

Mamoutzou temperature yesterday

Maximum temperature yesterday: 88 °F (at 9:30 AM)
Minimum temperature yesterday: 73 °F (at 3:00 AM)
Average temperature yesterday: 81 °F

Past Weeks' High & Low Weather Summary

 TemperatureHumidityPressure
High88 °F (Oct 14, 1:00 PM)94% (Oct 15, 5:00 AM)30.07 "Hg (Oct 15, 5:00 AM)
Low73 °F (Oct 15, 4:30 AM)49% (Oct 14, 1:00 PM)29.83 "Hg (Oct 17, 2:00 AM)
Average80 °F73%29.94 "Hg
* Reported Midnight between Oct 10 and Oct 11 — Midnight between Oct 25 and Oct 26, Mamoutzou, Weather by CustomWeather, © 2014

Note: Actual official high and low records may vary slightly from our data, if they occured in-between our weather recording intervals... More about our weather records

Advertising

Mamoutzou weather history for previous 24 hours

 ConditionsComfort  
Time TempWeatherWind HumidityBarometerVisibility
12:00 AM
Oct 26
79 °FWarm.2 mph79%29.92 "HgN/A
11:30 PM
Oct 25
79 °FWarm.3 mph84%29.92 "HgN/A
11:00 PM79 °FWarm.5 mph84%29.92 "HgN/A
10:30 PM79 °FWarm.6 mph79%29.95 "HgN/A
10:00 PM79 °FPassing clouds.7 mph79%29.95 "HgN/A
9:30 PM79 °FWarm.No wind79%29.95 "HgN/A
9:00 PM79 °FWarm.3 mph79%29.95 "HgN/A
8:30 PM81 °FWarm.3 mph74%29.95 "HgN/A
8:00 PM81 °FWarm.3 mph74%29.92 "HgN/A
7:30 PM81 °FWarm.3 mph74%29.92 "HgN/A
7:00 PM81 °FWarm.3 mph74%29.92 "HgN/A
6:30 PM81 °FWarm.5 mph74%29.92 "HgN/A
6:00 PM82 °FPassing clouds.5 mph70%29.92 "HgN/A
5:30 PM82 °FPassing clouds.6 mph70%29.89 "HgN/A
5:00 PM84 °FPassing clouds.7 mph62%29.89 "HgN/A
4:30 PM86 °FPassing clouds.6 mph62%29.89 "HgN/A
4:04 PM86 °FPassing clouds.9 mph62%29.86 "HgN/A
3:35 PM86 °FPassing clouds.9 mph62%29.86 "HgN/A
3:00 PM88 °FPassing clouds.6 mph59%29.89 "HgN/A
2:30 PM88 °FPassing clouds.8 mph59%29.89 "HgN/A
2:00 PM88 °FPassing clouds.8 mph59%29.89 "HgN/A
1:30 PM88 °FPassing clouds.9 mph62%29.89 "HgN/A
1:00 PM86 °FScattered clouds.12 mph66%29.89 "HgN/A
12:30 PM88 °FPassing clouds.12 mph62%29.92 "HgN/A
12:00 PM86 °FPassing clouds.12 mph62%29.92 "HgN/A
11:30 AM88 °FPassing clouds.9 mph62%29.95 "HgN/A
11:00 AM86 °FPassing clouds.10 mph62%29.95 "HgN/A
10:00 AM86 °FPassing clouds.9 mph62%29.95 "HgN/A
9:30 AM88 °FPassing clouds.10 mph59%29.98 "HgN/A
9:00 AM86 °FPassing clouds.9 mph62%29.98 "HgN/A
8:30 AM86 °FPassing clouds.8 mph62%29.98 "HgN/A
8:00 AM86 °FPassing clouds.7 mph62%29.98 "HgN/A
7:30 AM84 °FPassing clouds.7 mph66%29.98 "HgN/A
6:30 AM81 °FScattered clouds.3 mph74%29.95 "HgN/A
6:04 AM79 °FPassing clouds.6 mph79%29.95 "HgN/A
5:30 AM77 °FPassing clouds.3 mph79%29.92 "HgN/A
5:00 AM75 °FPassing clouds.2 mph83%29.92 "HgN/A
4:30 AM75 °FMild.No wind89%29.92 "HgN/A
4:00 AM75 °FPassing clouds.No wind89%29.92 "HgN/A
3:30 AM75 °FPassing clouds.2 mph89%29.92 "HgN/A
3:00 AM73 °FPassing clouds.No wind89%29.89 "HgN/A
2:30 AM75 °FMild.1 mph83%29.89 "HgN/A
2:00 AM75 °FMild.1 mph83%29.89 "HgN/A
1:30 AM75 °FMild.2 mph83%29.89 "HgN/A
1:00 AM75 °FMild.2 mph83%29.89 "HgN/A
Weather by CustomWeather, © 2014

See weather overviewHow to use our weather pages